| time (UTC) | temp C | wind direction | speed KPH | gust KPH | rain 1hr cm | rain 24hr cm | rain mn cm | humidity % | barometer mb |
| 20260903133902 | 23 | 190 | 0.0 | 3.2 | 0.00 | 0.46 | 0.00 | 97 | 1014.9 |
| 20260903133402 | 23 | 190 | 1.6 | 4.8 | 0.00 | 0.46 | 0.00 | 97 | 1015.2 |
| 20260903132904 | 23 | 189 | 1.6 | 6.4 | 0.00 | 0.46 | 0.00 | 97 | 1015.1 |
| 20260903132402 | 23 | 127 | 0.0 | 6.4 | 0.00 | 0.46 | 0.00 | 97 | 1015.4 |
| 20260903131902 | 23 | 41 | 1.6 | 4.8 | 0.00 | 0.46 | 0.00 | 97 | 1015.3 |
| 20260903131404 | 23 | 210 | 0.0 | 4.8 | 0.00 | 0.46 | 0.00 | 97 | 1015.5 |
| 20260903130902 | 23 | 185 | 1.6 | 4.8 | 0.00 | 0.46 | 0.00 | 97 | 1015.6 |
| 20260903130404 | 23 | 76 | 0.0 | 1.6 | 0.00 | 0.46 | 0.00 | 97 | 1015.8 |
| 20260903125902 | 23 | 76 | 0.0 | 0.0 | 0.00 | 0.46 | 0.00 | 97 | 1016.0 |
| 20260903125403 | 23 | 76 | 0.0 | 1.6 | 0.00 | 0.46 | 0.00 | 97 | 1016.0 |
| 20260903124902 | 23 | 76 | 0.0 | 3.2 | 0.00 | 0.46 | 0.00 | 98 | 1016.2 |
| 20260903124403 | 22 | 75 | 0.0 | 3.2 | 0.00 | 0.46 | 0.00 | 97 | 1016.1 |
| 20260903123902 | 22 | 75 | 0.0 | 4.8 | 0.00 | 0.46 | 0.00 | 97 | 1016.2 |
| 20260903123401 | 22 | 75 | 1.6 | 4.8 | 0.00 | 0.46 | 0.00 | 97 | 1016.3 |
| 20260903122903 | 22 | 65 | 0.0 | 3.2 | 0.00 | 0.46 | 0.00 | 97 | 1016.3 |
| 20260903122640 | 22 | 65 | 0.0 | 4.8 | 0.00 | 0.46 | 0.00 | 97 | 1016.3 |
| 20260903121902 | 22 | 65 | 0.0 | 4.8 | 0.00 | 0.46 | 0.00 | 97 | 1016.4 |
| 20260903121641 | 22 | 68 | 0.0 | 4.8 | 0.00 | 0.46 | 0.00 | 97 | 1016.4 |
| 20260903120903 | 22 | 35 | 1.6 | 6.4 | 0.00 | 0.46 | 0.00 | 97 | 1016.4 |
| 20260903120403 | 22 | 59 | 1.6 | 6.4 | 0.00 | 0.46 | 0.00 | 97 | 1016.6 |
| 20260903115905 | 22 | 52 | 1.6 | 4.8 | 0.00 | 0.46 | 0.00 | 97 | 1016.6 |
| 20260903115403 | 22 | 52 | 0.0 | 6.4 | 0.00 | 0.46 | 0.00 | 97 | 1016.5 |
| 20260903114903 | 22 | 52 | 1.6 | 6.4 | 0.00 | 0.46 | 0.00 | 97 | 1016.5 |
| 20260903114404 | 22 | 44 | 1.6 | 4.8 | 0.00 | 0.46 | 0.00 | 97 | 1016.5 |
| 20260903113902 | 22 | 298 | 0.0 | 4.8 | 0.00 | 0.46 | 0.00 | 97 | 1016.6 |
| 20260903113403 | 22 | 235 | 1.6 | 6.4 | 0.00 | 0.46 | 0.00 | 97 | 1016.5 |
| 20260903112903 | 22 | 54 | 1.6 | 6.4 | 0.00 | 0.46 | 0.00 | 97 | 1016.4 |
| 20260903112640 | 22 | 63 | 1.6 | 6.4 | 0.00 | 0.46 | 0.00 | 97 | 1016.4 |
| 20260903111902 | 22 | 58 | 0.0 | 6.4 | 0.00 | 0.46 | 0.00 | 97 | 1016.2 |
| 20260903111403 | 22 | 66 | 0.0 | 0.0 | 0.00 | 0.46 | 0.00 | 97 | 1016.3 |
| 20260903110902 | 22 | 66 | 0.0 | 0.0 | 0.00 | 0.46 | 0.00 | 97 | 1015.7 |
| 20260903110401 | 22 | 66 | 0.0 | 0.0 | 0.00 | 0.46 | 0.00 | 97 | 1015.5 |
| 20260903105918 | 22 | 66 | 0.0 | 0.0 | 0.00 | 0.46 | 0.00 | 97 | 1015.5 |
| 20260903105911 | 22 | 66 | 0.0 | 0.0 | 0.00 | 0.46 | 0.00 | 97 | 1015.5 |
| 20260903104856 | 22 | 66 | 0.0 | 0.0 | 0.00 | 0.46 | 0.00 | 97 | 1015.4 |
| 20260903104635 | 21 | 66 | 0.0 | 0.0 | 0.00 | 0.46 | 0.00 | 97 | 1015.4 |
| 20260903103853 | 21 | 66 | 0.0 | 0.0 | 0.00 | 0.46 | 0.00 | 97 | 1015.3 |
| 20260903103631 | 21 | 66 | 0.0 | 0.0 | 0.00 | 0.46 | 0.00 | 97 | 1015.1 |
| 20260903102850 | 21 | 66 | 0.0 | 0.0 | 0.00 | 0.46 | 0.00 | 97 | 1015.0 |
| 20260903102349 | 21 | 66 | 0.0 | 0.0 | 0.00 | 0.46 | 0.00 | 97 | 1014.6 |
| 20260903101847 | 21 | 66 | 0.0 | 0.0 | 0.00 | 0.46 | 0.00 | 97 | 1014.6 |
| 20260903101409 | 21 | 66 | 0.0 | 0.0 | 0.00 | 0.46 | 0.00 | 97 | 1014.5 |
| 20260903101401 | 21 | 66 | 0.0 | 0.0 | 0.00 | 0.46 | 0.00 | 97 | 1014.6 |
| 20260903100344 | 21 | 66 | 0.0 | 0.0 | 0.00 | 0.46 | 0.00 | 97 | 1014.4 |
| 20260903095841 | 21 | 66 | 0.0 | 0.0 | 0.00 | 0.46 | 0.00 | 97 | 1014.4 |
| 20260903095342 | 21 | 66 | 0.0 | 0.0 | 0.00 | 0.46 | 0.00 | 97 | 1014.5 |
| 20260903094837 | 21 | 66 | 0.0 | 0.0 | 0.00 | 0.46 | 0.00 | 97 | 1014.5 |
| 20260903094335 | 21 | 66 | 0.0 | 0.0 | 0.00 | 0.46 | 0.00 | 97 | 1014.6 |
| 20260903093835 | 21 | 66 | 0.0 | 0.0 | 0.00 | 0.46 | 0.00 | 97 | 1014.6 |
| 20260903093331 | 21 | 66 | 0.0 | 0.0 | 0.00 | 0.46 | 0.00 | 97 | 1014.6 |
| 20260903092832 | 21 | 66 | 0.0 | 0.0 | 0.00 | 0.46 | 0.00 | 97 | 1014.7 |
| 20260903092331 | 21 | 66 | 0.0 | 0.0 | 0.00 | 0.46 | 0.00 | 97 | 1014.8 |
| 20260903091830 | 21 | 66 | 0.0 | 0.0 | 0.00 | 0.46 | 0.00 | 97 | 1014.7 |
| 20260903091330 | 21 | 66 | 0.0 | 0.0 | 0.00 | 0.46 | 0.00 | 97 | 1014.7 |
| 20260903090831 | 21 | 66 | 0.0 | 0.0 | 0.00 | 0.46 | 0.00 | 97 | 1014.7 |
| 20260903090332 | 21 | 66 | 0.0 | 0.0 | 0.00 | 0.46 | 0.00 | 97 | 1014.7 |
| 20260903085827 | 21 | 66 | 0.0 | 0.0 | 0.00 | 0.46 | 0.00 | 97 | 1014.6 |
| 20260903085328 | 21 | 66 | 0.0 | 0.0 | 0.00 | 0.46 | 0.00 | 97 | 1014.5 |
| 20260903084822 | 21 | 66 | 0.0 | 0.0 | 0.00 | 0.46 | 0.00 | 97 | 1014.6 |
| 20260903084322 | 21 | 66 | 0.0 | 0.0 | 0.00 | 0.46 | 0.00 | 97 | 1014.5 |
| 20260903084104 | 21 | 66 | 0.0 | 0.0 | 0.00 | 0.46 | 0.00 | 97 | 1014.4 |
| 20260903083323 | 21 | 66 | 0.0 | 0.0 | 0.00 | 0.46 | 0.00 | 97 | 1014.4 |
| 20260903082817 | 21 | 66 | 0.0 | 0.0 | 0.00 | 0.46 | 0.00 | 97 | 1014.3 |
| 20260903082316 | 21 | 66 | 0.0 | 0.0 | 0.00 | 0.46 | 0.00 | 97 | 1014.3 |
| 20260903081817 | 21 | 66 | 0.0 | 0.0 | 0.00 | 0.46 | 0.00 | 97 | 1014.4 |
| 20260903081316 | 21 | 66 | 0.0 | 0.0 | 0.00 | 0.46 | 0.00 | 97 | 1014.6 |
| 20260903081048 | 21 | 66 | 0.0 | 0.0 | 0.00 | 0.46 | 0.00 | 97 | 1014.6 |
| 20260903080307 | 21 | 66 | 0.0 | 1.6 | 0.00 | 0.46 | 0.00 | 97 | 1014.5 |
| 20260903075808 | 21 | 66 | 0.0 | 1.6 | 0.00 | 0.46 | 0.00 | 97 | 1014.6 |
| 20260903075308 | 21 | 66 | 0.0 | 0.0 | 0.00 | 0.46 | 0.00 | 97 | 1014.6 |
| 20260903074804 | 21 | 66 | 0.0 | 0.0 | 0.00 | 0.46 | 0.00 | 97 | 1014.6 |
| 20260903074303 | 21 | 66 | 0.0 | 0.0 | 0.00 | 0.46 | 0.00 | 97 | 1014.6 |
| 20260903073803 | 21 | 66 | 0.0 | 0.0 | 0.00 | 0.46 | 0.00 | 97 | 1014.5 |
| 20260903073304 | 21 | 66 | 0.0 | 0.0 | 0.00 | 0.46 | 0.00 | 97 | 1014.5 |
| 20260903072805 | 21 | 66 | 0.0 | 0.0 | 0.00 | 0.46 | 0.00 | 97 | 1014.4 |
| 20260903072306 | 21 | 66 | 0.0 | 3.2 | 0.00 | 0.46 | 0.00 | 97 | 1014.5 |
| 20260903072041 | 21 | 66 | 0.0 | 3.2 | 0.00 | 0.46 | 0.00 | 97 | 1014.4 |
| 20260903071303 | 21 | 66 | 0.0 | 1.6 | 0.00 | 0.46 | 0.00 | 97 | 1014.5 |
| 20260903070804 | 21 | 66 | 0.0 | 4.8 | 0.00 | 0.46 | 0.00 | 97 | 1014.3 |
| 20260903070304 | 21 | 66 | 0.0 | 4.8 | 0.00 | 0.46 | 0.00 | 97 | 1014.3 |
| 20260903065802 | 21 | 144 | 0.0 | 3.2 | 0.00 | 0.46 | 0.00 | 97 | 1014.2 |
| 20260903065305 | 21 | 144 | 0.0 | 0.0 | 0.00 | 0.46 | 0.00 | 97 | 1014.2 |
| 20260903064802 | 21 | 144 | 0.0 | 0.0 | 0.00 | 0.46 | 0.00 | 97 | 1014.3 |
| 20260903064301 | 21 | 144 | 0.0 | 0.0 | 0.00 | 0.46 | 0.00 | 97 | 1014.4 |
| 20260903063828 | 21 | 144 | 0.0 | 3.2 | 0.00 | 0.46 | 0.00 | 97 | 1014.6 |
| 20260903063818 | 21 | 144 | 0.0 | 1.6 | 0.00 | 0.46 | 0.00 | 97 | 1014.5 |
| 20260903062803 | 21 | 144 | 0.0 | 3.2 | 0.00 | 0.46 | 0.00 | 97 | 1014.4 |
| 20260903062542 | 21 | 52 | 0.0 | 1.6 | 0.00 | 0.46 | 0.00 | 97 | 1014.4 |
| 20260903061802 | 21 | 52 | 0.0 | 3.2 | 0.00 | 0.46 | 0.00 | 97 | 1014.3 |
| 20260903061302 | 21 | 52 | 0.0 | 3.2 | 0.00 | 0.46 | 0.00 | 97 | 1014.3 |
| 20260903060802 | 21 | 51 | 0.0 | 3.2 | 0.00 | 0.46 | 0.00 | 97 | 1014.5 |
| 20260903060302 | 21 | 51 | 1.6 | 3.2 | 0.00 | 0.46 | 0.00 | 97 | 1014.6 |
| 20260903055803 | 21 | 51 | 0.0 | 1.6 | 0.00 | 0.46 | 0.00 | 97 | 1014.5 |
| 20260903055306 | 21 | 97 | 0.0 | 1.6 | 0.00 | 0.46 | 0.00 | 97 | 1014.5 |
| 20260903054802 | 21 | 73 | 0.0 | 0.0 | 0.00 | 0.46 | 0.00 | 97 | 1014.6 |
| 20260903054302 | 21 | 73 | 0.0 | 0.0 | 0.00 | 0.46 | 0.00 | 96 | 1014.7 |
| 20260903053802 | 21 | 73 | 0.0 | 0.0 | 0.00 | 0.46 | 0.00 | 96 | 1014.8 |
| 20260903053326 | 21 | 73 | 0.0 | 0.0 | 0.00 | 0.46 | 0.00 | 96 | 1014.8 |
| 20260903053318 | 21 | 73 | 0.0 | 0.0 | 0.00 | 0.46 | 0.00 | 96 | 1014.8 |
| 20260903052541 | 21 | 73 | 0.0 | 0.0 | 0.00 | 0.46 | 0.00 | 96 | 1014.8 |
| 20260903051803 | 21 | 73 | 0.0 | 0.0 | 0.00 | 0.46 | 0.00 | 96 | 1014.8 |
| 20260903051259 | 21 | 73 | 0.0 | 0.0 | 0.00 | 0.46 | 0.00 | 96 | 1014.9 |
| 20260903050800 | 21 | 73 | 0.0 | 0.0 | 0.00 | 0.46 | 0.00 | 96 | 1015.0 |
| 20260903050300 | 22 | 73 | 0.0 | 0.0 | 0.00 | 0.46 | 0.00 | 96 | 1015.1 |
| 20260903045749 | 22 | 73 | 0.0 | 0.0 | 0.00 | 0.46 | 0.00 | 96 | 1015.0 |
| 20260903045251 | 22 | 73 | 0.0 | 0.0 | 0.00 | 0.46 | 0.00 | 96 | 1015.1 |
| 20260903044747 | 22 | 73 | 0.0 | 0.0 | 0.00 | 0.46 | 0.00 | 96 | 1015.1 |
| 20260903044245 | 22 | 73 | 0.0 | 0.0 | 0.00 | 0.46 | 0.00 | 96 | 1015.2 |
| 20260903043746 | 22 | 73 | 0.0 | 0.0 | 0.00 | 0.46 | 0.00 | 96 | 1015.2 |
| 20260903043643 | 22 | 73 | 0.0 | 0.0 | 0.00 | 0.46 | 0.00 | 96 | 1015.3 |
| 20260903043357 | 22 | 73 | 0.0 | 0.0 | 0.00 | 0.46 | 0.00 | 96 | 1015.2 |
| 20260903043338 | 22 | 73 | 0.0 | 0.0 | 0.00 | 0.46 | 0.00 | 96 | 1015.2 |
| 20260903043109 | 22 | 73 | 0.0 | 0.0 | 0.00 | 0.46 | 0.00 | 96 | 1015.3 |
| 20260903041243 | 22 | 73 | 0.0 | 0.0 | 0.00 | 0.46 | 0.00 | 96 | 1015.4 |
| 20260903041024 | 22 | 73 | 0.0 | 0.0 | 0.00 | 0.46 | 0.00 | 96 | 1015.5 |
| 20260903040243 | 22 | 73 | 0.0 | 0.0 | 0.00 | 0.46 | 0.00 | 96 | 1015.6 |
| 20260903035743 | 22 | 73 | 0.0 | 0.0 | 0.00 | 0.46 | 0.46 | 96 | 1015.5 |
| 20260903035243 | 22 | 73 | 0.0 | 0.0 | 0.00 | 0.46 | 0.46 | 96 | 1015.4 |
| 20260903034743 | 22 | 73 | 0.0 | 0.0 | 0.00 | 0.46 | 0.46 | 96 | 1015.5 |
| 20260903034243 | 22 | 73 | 0.0 | 0.0 | 0.00 | 0.46 | 0.46 | 96 | 1015.3 |
| 20260903033742 | 22 | 73 | 0.0 | 0.0 | 0.00 | 0.46 | 0.46 | 96 | 1015.2 |
| 20260903033244 | 22 | 73 | 0.0 | 0.0 | 0.00 | 0.46 | 0.46 | 96 | 1015.3 |
| 20260903032741 | 22 | 73 | 0.0 | 0.0 | 0.00 | 0.46 | 0.46 | 96 | 1015.4 |
| 20260903032242 | 22 | 73 | 0.0 | 0.0 | 0.00 | 0.46 | 0.46 | 96 | 1015.5 |
| 20260903031806 | 22 | 73 | 0.0 | 0.0 | 0.00 | 0.46 | 0.46 | 96 | 1015.6 |
| 20260903031757 | 22 | 73 | 0.0 | 0.0 | 0.00 | 0.46 | 0.46 | 96 | 1015.7 |
| 20260903031021 | 22 | 73 | 0.0 | 0.0 | 0.00 | 0.46 | 0.46 | 96 | 1015.3 |
| 20260903030242 | 22 | 73 | 0.0 | 0.0 | 0.00 | 0.46 | 0.46 | 96 | 1015.5 |
| 20260903025742 | 22 | 73 | 0.0 | 0.0 | 0.00 | 0.46 | 0.46 | 96 | 1015.3 |
| 20260903025241 | 22 | 73 | 0.0 | 0.0 | 0.00 | 0.46 | 0.46 | 96 | 1015.5 |
| 20260903024742 | 22 | 73 | 0.0 | 0.0 | 0.00 | 0.46 | 0.46 | 96 | 1015.4 |
| 20260903024243 | 22 | 73 | 0.0 | 0.0 | 0.00 | 0.46 | 0.46 | 96 | 1015.4 |
| 20260903023741 | 22 | 73 | 0.0 | 0.0 | 0.00 | 0.46 | 0.46 | 96 | 1015.3 |
| 20260903023241 | 22 | 73 | 0.0 | 1.6 | 0.00 | 0.46 | 0.46 | 96 | 1015.3 |
| 20260903023019 | 22 | 73 | 1.6 | 3.2 | 0.00 | 0.46 | 0.46 | 96 | 1015.2 |
| 20260903022543 | 22 | 73 | 3.2 | 3.2 | 0.00 | 0.46 | 0.46 | 96 | 1015.1 |
| 20260903022539 | 22 | 73 | 1.6 | 3.2 | 0.00 | 0.46 | 0.46 | 96 | 1015.1 |
| 20260903021241 | 22 | 73 | 0.0 | 3.2 | 0.00 | 0.46 | 0.46 | 96 | 1014.9 |
| 20260903020742 | 22 | 73 | 0.0 | 0.0 | 0.00 | 0.46 | 0.46 | 96 | 1014.8 |
| 20260903020304 | 22 | 73 | 0.0 | 0.0 | 0.00 | 0.46 | 0.46 | 96 | 1014.9 |
| 20260903020256 | 22 | 73 | 0.0 | 0.0 | 0.00 | 0.46 | 0.46 | 96 | 1014.7 |
| 20260903015240 | 22 | 73 | 0.0 | 0.0 | 0.00 | 0.46 | 0.46 | 96 | 1014.7 |
| 20260903014740 | 22 | 73 | 0.0 | 0.0 | 0.00 | 0.46 | 0.46 | 96 | 1014.6 |
| 20260903014240 | 22 | 73 | 0.0 | 0.0 | 0.00 | 0.46 | 0.46 | 96 | 1014.6 |
| 20260903013741 | 22 | 73 | 0.0 | 0.0 | 0.00 | 0.46 | 0.46 | 96 | 1014.8 |
| 20260903013519 | 22 | 73 | 0.0 | 0.0 | 0.00 | 0.46 | 0.46 | 96 | 1015.0 |
| 20260903012740 | 22 | 73 | 0.0 | 0.0 | 0.00 | 0.46 | 0.46 | 96 | 1015.0 |
| 20260903012243 | 22 | 73 | 0.0 | 0.0 | 0.00 | 0.46 | 0.46 | 96 | 1015.0 |
| 20260903012013 | 22 | 73 | 0.0 | 0.0 | 0.00 | 0.46 | 0.46 | 95 | 1015.2 |
| 20260903011231 | 22 | 73 | 0.0 | 0.0 | 0.00 | 0.46 | 0.46 | 96 | 1015.2 |
| 20260903010731 | 22 | 73 | 0.0 | 0.0 | 0.00 | 0.46 | 0.46 | 95 | 1015.4 |
| 20260903010232 | 22 | 73 | 0.0 | 0.0 | 0.00 | 0.46 | 0.46 | 96 | 1015.3 |
| 20260903005731 | 22 | 73 | 0.0 | 0.0 | 0.00 | 0.46 | 0.46 | 95 | 1015.2 |
| 20260903005513 | 22 | 73 | 0.0 | 0.0 | 0.00 | 0.46 | 0.46 | 95 | 1015.2 |
| 20260903004733 | 22 | 73 | 0.0 | 0.0 | 0.00 | 0.46 | 0.46 | 95 | 1015.3 |
| 20260903004230 | 22 | 73 | 0.0 | 1.6 | 0.00 | 0.46 | 0.46 | 95 | 1015.3 |
| 20260903003751 | 23 | 73 | 0.0 | 0.0 | 0.00 | 0.46 | 0.46 | 95 | 1015.1 |
| 20260903003744 | 22 | 73 | 0.0 | 1.6 | 0.00 | 0.46 | 0.46 | 95 | 1015.2 |
| 20260903002731 | 23 | 73 | 0.0 | 0.0 | 0.00 | 0.46 | 0.46 | 95 | 1015.0 |
| 20260903002232 | 23 | 73 | 0.0 | 0.0 | 0.00 | 0.46 | 0.46 | 95 | 1015.1 |
| 20260903001732 | 23 | 73 | 0.0 | 0.0 | 0.00 | 0.46 | 0.46 | 95 | 1015.1 |
| 20260903001231 | 23 | 73 | 0.0 | 0.0 | 0.00 | 0.46 | 0.46 | 95 | 1015.2 |
| 20260903001013 | 23 | 73 | 0.0 | 0.0 | 0.00 | 0.46 | 0.46 | 95 | 1015.3 |
| 20260903000233 | 23 | 73 | 0.0 | 0.0 | 0.00 | 0.46 | 0.46 | 95 | 1015.5 |
| 20260902235731 | 23 | 73 | 0.0 | 0.0 | 0.00 | 0.46 | 0.46 | 95 | 1015.5 |
| 20260902235232 | 23 | 73 | 0.0 | 0.0 | 0.00 | 0.46 | 0.46 | 95 | 1015.4 |
| 20260902234733 | 23 | 73 | 0.0 | 1.6 | 0.00 | 0.46 | 0.46 | 95 | 1015.3 |
| 20260902234230 | 23 | 73 | 0.0 | 1.6 | 0.00 | 0.46 | 0.46 | 94 | 1015.2 |
| 20260902233731 | 23 | 73 | 0.0 | 0.0 | 0.00 | 0.46 | 0.46 | 94 | 1015.2 |
| 20260902233230 | 23 | 73 | 0.0 | 0.0 | 0.00 | 0.46 | 0.46 | 94 | 1015.3 |
| 20260902232732 | 23 | 73 | 0.0 | 0.0 | 0.00 | 0.46 | 0.46 | 94 | 1015.1 |
| 20260902232231 | 23 | 73 | 0.0 | 0.0 | 0.00 | 0.46 | 0.46 | 94 | 1015.1 |
| 20260902231731 | 23 | 73 | 0.0 | 0.0 | 0.00 | 0.46 | 0.46 | 94 | 1015.3 |
| 20260902231232 | 23 | 73 | 0.0 | 0.0 | 0.00 | 0.46 | 0.46 | 94 | 1015.5 |
| 20260902230730 | 23 | 73 | 0.0 | 0.0 | 0.00 | 0.46 | 0.46 | 93 | 1015.6 |
| 20260902230232 | 23 | 73 | 0.0 | 0.0 | 0.00 | 0.46 | 0.46 | 93 | 1015.6 |
| 20260902230011 | 23 | 73 | 0.0 | 0.0 | 0.00 | 0.46 | 0.46 | 93 | 1015.5 |
| 20260902225207 | 23 | 73 | 0.0 | 1.6 | 0.00 | 0.46 | 0.46 | 93 | 1015.5 |
| 20260902224726 | 24 | 73 | 0.0 | 0.0 | 0.00 | 0.46 | 0.46 | 93 | 1015.5 |
| 20260902224719 | 23 | 73 | 0.0 | 1.6 | 0.00 | 0.46 | 0.46 | 93 | 1015.5 |
| 20260902223703 | 24 | 73 | 0.0 | 0.0 | 0.00 | 0.46 | 0.46 | 92 | 1015.6 |
| 20260902223203 | 24 | 73 | 0.0 | 0.0 | 0.00 | 0.46 | 0.46 | 93 | 1015.6 |
| 20260902222704 | 24 | 73 | 0.0 | 0.0 | 0.00 | 0.46 | 0.46 | 93 | 1015.6 |
| 20260902222203 | 24 | 73 | 0.0 | 0.0 | 0.00 | 0.46 | 0.46 | 93 | 1015.6 |
| 20260902221917 | 24 | 73 | 0.0 | 3.2 | 0.00 | 0.46 | 0.46 | 93 | 1015.5 |
| 20260902221707 | 24 | 73 | 0.0 | 3.2 | 0.00 | 0.46 | 0.46 | 93 | 1015.5 |
| 20260902221203 | 24 | 73 | 0.0 | 3.2 | 0.00 | 0.46 | 0.46 | 94 | 1015.3 |
| 20260902220704 | 24 | 73 | 0.0 | 1.6 | 0.00 | 0.46 | 0.46 | 95 | 1015.4 |
| 20260902220159 | 24 | 73 | 0.0 | 0.0 | 0.00 | 0.46 | 0.46 | 95 | 1015.5 |
| 20260902215659 | 24 | 73 | 0.0 | 3.2 | 0.00 | 0.46 | 0.46 | 95 | 1015.6 |
| 20260902215159 | 24 | 73 | 0.0 | 3.2 | 0.00 | 0.46 | 0.46 | 95 | 1015.7 |
| 20260902214657 | 24 | 73 | 0.0 | 3.2 | 0.00 | 0.46 | 0.46 | 95 | 1015.8 |
| 20260902214435 | 24 | 73 | 0.0 | 3.2 | 0.00 | 0.46 | 0.46 | 95 | 1015.9 |
| 20260902213658 | 24 | 73 | 0.0 | 1.6 | 0.00 | 0.46 | 0.46 | 95 | 1016.2 |
| 20260902213152 | 23 | 73 | 0.0 | 1.6 | 0.00 | 0.46 | 0.46 | 95 | 1016.1 |
| 20260902212652 | 23 | 73 | 0.0 | 0.0 | 0.00 | 0.46 | 0.46 | 95 | 1016.2 |
| 20260902212153 | 23 | 73 | 0.0 | 0.0 | 0.00 | 0.46 | 0.46 | 95 | 1016.1 |
| 20260902211648 | 23 | 73 | 0.0 | 1.6 | 0.00 | 0.46 | 0.46 | 95 | 1016.0 |
| 20260902211147 | 23 | 73 | 0.0 | 1.6 | 0.00 | 0.46 | 0.46 | 95 | 1015.9 |
| 20260902210648 | 23 | 73 | 0.0 | 1.6 | 0.00 | 0.46 | 0.46 | 95 | 1015.9 |
| 20260902210148 | 23 | 73 | 0.0 | 3.2 | 0.00 | 0.46 | 0.46 | 95 | 1015.8 |
| 20260902205648 | 23 | 73 | 0.0 | 3.2 | 0.00 | 0.46 | 0.46 | 95 | 1015.6 |
| 20260902205148 | 23 | 73 | 1.6 | 3.2 | 0.00 | 0.46 | 0.46 | 95 | 1015.6 |
| 20260902204711 | 23 | 73 | 0.0 | 1.6 | 0.00 | 0.46 | 0.46 | 94 | 1015.7 |
| 20260902204702 | 23 | 73 | 0.0 | 1.6 | 0.00 | 0.46 | 0.46 | 95 | 1015.7 |
| 20260902203923 | 23 | 73 | 0.0 | 1.6 | 0.00 | 0.46 | 0.46 | 94 | 1015.7 |
| 20260902203146 | 23 | 73 | 0.0 | 1.6 | 0.00 | 0.46 | 0.46 | 94 | 1015.7 |
| 20260902202644 | 23 | 73 | 0.0 | 1.6 | 0.00 | 0.46 | 0.46 | 94 | 1015.8 |
| 20260902202142 | 23 | 73 | 0.0 | 0.0 | 0.00 | 0.46 | 0.46 | 94 | 1015.9 |
| 20260902201639 | 23 | 73 | 0.0 | 0.0 | 0.00 | 0.46 | 0.46 | 94 | 1015.9 |
| 20260902201135 | 23 | 73 | 0.0 | 0.0 | 0.00 | 0.46 | 0.46 | 95 | 1016.0 |
| 20260902200634 | 23 | 73 | 0.0 | 1.6 | 0.00 | 0.46 | 0.46 | 94 | 1016.2 |
| 20260902200411 | 23 | 73 | 0.0 | 1.6 | 0.00 | 0.46 | 0.46 | 94 | 1016.1 |
| 20260902195634 | 23 | 73 | 0.0 | 0.0 | 0.00 | 0.46 | 0.46 | 94 | 1016.4 |
| 20260902195134 | 23 | 73 | 0.0 | 0.0 | 0.00 | 0.46 | 0.46 | 94 | 1016.6 |
| 20260902194633 | 23 | 73 | 0.0 | 0.0 | 0.03 | 0.46 | 0.46 | 94 | 1016.5 |
| 20260902194134 | 23 | 73 | 0.0 | 0.0 | 0.05 | 0.46 | 0.46 | 94 | 1016.2 |
| 20260902193632 | 23 | 73 | 0.0 | 0.0 | 0.08 | 0.46 | 0.46 | 94 | 1016.0 |
| 20260902193130 | 23 | 73 | 0.0 | 0.0 | 0.10 | 0.46 | 0.46 | 93 | 1015.9 |
| 20260902192632 | 23 | 73 | 0.0 | 1.6 | 0.15 | 0.46 | 0.46 | 93 | 1015.9 |
| 20260902192131 | 23 | 73 | 0.0 | 3.2 | 0.20 | 0.46 | 0.46 | 93 | 1015.7 |
| 20260902191631 | 23 | 73 | 1.6 | 3.2 | 0.30 | 0.46 | 0.46 | 93 | 1016.0 |
| 20260902191132 | 23 | 68 | 0.0 | 1.6 | 0.43 | 0.46 | 0.46 | 93 | 1015.9 |
| 20260902190630 | 23 | 68 | 0.0 | 3.2 | 0.46 | 0.46 | 0.46 | 93 | 1016.0 |
| 20260902190131 | 23 | 68 | 0.0 | 4.8 | 0.46 | 0.46 | 0.46 | 93 | 1016.1 |
| 20260902185630 | 23 | 68 | 3.2 | 4.8 | 0.46 | 0.00 | 0.46 | 92 | 1015.9 |
| 20260902185132 | 23 | 116 | 1.6 | 3.2 | 0.46 | 0.00 | 0.43 | 92 | 1016.2 |
| 20260902184631 | 23 | 127 | 1.6 | 3.2 | 0.43 | 0.00 | 0.43 | 92 | 1016.0 |
| 20260902184131 | 23 | 86 | 1.6 | 4.8 | 0.41 | 0.00 | 0.41 | 92 | 1016.0 |
| 20260902183631 | 23 | 87 | 3.2 | 6.4 | 0.38 | 0.00 | 0.38 | 92 | 1016.4 |
| 20260902183130 | 23 | 71 | 1.6 | 8.0 | 0.36 | 0.00 | 0.33 | 91 | 1016.2 |
| 20260902182631 | 23 | 49 | 3.2 | 14.5 | 0.30 | 0.00 | 0.30 | 90 | 1016.5 |
| 20260902182130 | 23 | 82 | 4.8 | 14.5 | 0.25 | 0.00 | 0.23 | 87 | 1017.2 |
| 20260902181630 | 25 | 87 | 4.8 | 19.3 | 0.15 | 0.00 | 0.15 | 83 | 1017.2 |
| 20260902181130 | 28 | 18 | 12.9 | 19.3 | 0.03 | 0.00 | 0.00 | 74 | 1017.3 |
| 20260902180629 | 30 | 72 | 4.8 | 20.9 | 0.00 | 0.00 | 0.00 | 66 | 1017.1 |
| 20260902180408 | 32 | 149 | 8.0 | 20.9 | 0.00 | 0.00 | 0.00 | 66 | 1016.9 |
| 20260902175629 | 32 | 47 | 3.2 | 8.0 | 0.00 | 0.00 | 0.00 | 69 | 1016.5 |
| 20260902175129 | 31 | 44 | 3.2 | 8.0 | 0.00 | 0.00 | 0.00 | 69 | 1016.5 |
| 20260902174629 | 32 | 87 | 3.2 | 8.0 | 0.00 | 0.00 | 0.00 | 68 | 1016.6 |
| 20260902174129 | 32 | 68 | 4.8 | 8.0 | 0.00 | 0.00 | 0.00 | 67 | 1016.7 |
| 20260902173629 | 32 | 38 | 3.2 | 8.0 | 0.00 | 0.00 | 0.00 | 67 | 1016.6 |
| 20260902173130 | 32 | 120 | 6.4 | 8.0 | 0.00 | 0.00 | 0.00 | 68 | 1016.5 |
| 20260902172629 | 33 | 56 | 3.2 | 4.8 | 0.00 | 0.00 | 0.00 | 68 | 1016.5 |
| 20260902172129 | 33 | 51 | 3.2 | 4.8 | 0.00 | 0.00 | 0.00 | 66 | 1016.6 |
| 20260902171629 | 32 | 24 | 1.6 | 4.8 | 0.00 | 0.00 | 0.00 | 68 | 1016.5 |
| 20260902171409 | 33 | 100 | 1.6 | 4.8 | 0.00 | 0.00 | 0.00 | 63 | 1016.5 |
| 20260902170629 | 33 | 102 | 3.2 | 4.8 | 0.00 | 0.00 | 0.00 | 62 | 1016.5 |
| 20260902170129 | 33 | 76 | 3.2 | 4.8 | 0.00 | 0.00 | 0.00 | 63 | 1016.2 |
| 20260902165628 | 34 | 68 | 0.0 | 4.8 | 0.00 | 0.00 | 0.00 | 63 | 1016.2 |
| 20260902165130 | 33 | 68 | 0.0 | 4.8 | 0.00 | 0.00 | 0.00 | 63 | 1016.3 |
| 20260902164905 | 33 | 61 | 0.0 | 4.8 | 0.00 | 0.00 | 0.00 | 65 | 1016.3 |
| 20260902164128 | 33 | 65 | 0.0 | 4.8 | 0.00 | 0.00 | 0.00 | 65 | 1016.4 |
| 20260902163628 | 33 | 30 | 1.6 | 4.8 | 0.00 | 0.00 | 0.00 | 69 | 1016.3 |
| 20260902163127 | 32 | 100 | 1.6 | 4.8 | 0.00 | 0.00 | 0.00 | 63 | 1016.3 |
| 20260902162627 | 33 | 66 | 1.6 | 6.4 | 0.00 | 0.00 | 0.00 | 64 | 1016.4 |
| 20260902162127 | 33 | 62 | 0.0 | 6.4 | 0.00 | 0.00 | 0.00 | 65 | 1016.4 |
| 20260902161628 | 32 | 44 | 0.0 | 3.2 | 0.00 | 0.00 | 0.00 | 66 | 1016.4 |
| 20260902161127 | 32 | 42 | 0.0 | 3.2 | 0.00 | 0.00 | 0.00 | 65 | 1016.3 |
| 20260902160627 | 33 | 45 | 0.0 | 6.4 | 0.00 | 0.00 | 0.00 | 67 | 1016.2 |
| 20260902160127 | 33 | 47 | 0.0 | 6.4 | 0.00 | 0.00 | 0.00 | 65 | 1016.2 |
| 20260902155627 | 34 | 128 | 0.0 | 3.2 | 0.00 | 0.00 | 0.00 | 62 | 1016.2 |
| 20260902155127 | 33 | 128 | 0.0 | 3.2 | 0.00 | 0.00 | 0.00 | 62 | 1016.3 |
| 20260902154628 | 33 | 131 | 0.0 | 3.2 | 0.00 | 0.00 | 0.00 | 62 | 1016.2 |
| 20260902154151 | 32 | 90 | 0.0 | 8.0 | 0.00 | 0.00 | 0.00 | 67 | 1016.2 |
| 20260902154142 | 33 | 130 | 1.6 | 3.2 | 0.00 | 0.00 | 0.00 | 64 | 1016.1 |
| 20260902153126 | 32 | 89 | 1.6 | 8.0 | 0.00 | 0.00 | 0.00 | 64 | 1016.3 |
| 20260902152627 | 32 | 69 | 3.2 | 8.0 | 0.00 | 0.00 | 0.00 | 62 | 1016.3 |
| 20260902152406 | 32 | 72 | 0.0 | 3.2 | 0.00 | 0.00 | 0.00 | 64 | 1016.2 |
| 20260902151626 | 33 | 66 | 0.0 | 4.8 | 0.00 | 0.00 | 0.00 | 64 | 1016.2 |
| 20260902151127 | 32 | 73 | 0.0 | 4.8 | 0.00 | 0.00 | 0.00 | 71 | 1016.2 |
| 20260902150626 | 32 | 42 | 1.6 | 4.8 | 0.00 | 0.00 | 0.00 | 66 | 1016.2 |
| 20260902150125 | 32 | 65 | 0.0 | 3.2 | 0.00 | 0.00 | 0.00 | 66 | 1016.1 |
| 20260902145906 | 31 | 65 | 0.0 | 8.0 | 0.00 | 0.00 | 0.00 | 68 | 1016.2 |
| 20260902145125 | 31 | 65 | 1.6 | 8.0 | 0.00 | 0.00 | 0.00 | 69 | 1016.2 |
| 20260902144626 | 31 | 109 | 0.0 | 4.8 | 0.00 | 0.00 | 0.00 | 69 | 1016.2 |
| 20260902144403 | 31 | 100 | 1.6 | 4.8 | 0.00 | 0.00 | 0.00 | 67 | 1016.1 |
| 20260902143625 | 31 | 97 | 1.6 | 4.8 | 0.00 | 0.00 | 0.00 | 68 | 1016.1 |
| 20260902143125 | 31 | 144 | 0.0 | 4.8 | 0.00 | 0.00 | 0.00 | 71 | 1016.0 |
| 20260902142904 | 31 | 72 | 1.6 | 4.8 | 0.00 | 0.00 | 0.00 | 70 | 1016.2 |
| 20260902142126 | 31 | 63 | 1.6 | 4.8 | 0.00 | 0.00 | 0.00 | 69 | 1016.1 |
| 20260902141624 | 31 | 48 | 3.2 | 6.4 | 0.00 | 0.00 | 0.00 | 71 | 1016.1 |
| 20260902141404 | 30 | 87 | 1.6 | 6.4 | 0.00 | 0.00 | 0.00 | 70 | 1016.1 |
| 20260902140624 | 30 | 44 | 0.0 | 1.6 | 0.00 | 0.00 | 0.00 | 72 | 1016.3 |
| 20260902140125 | 30 | 39 | 0.0 | 1.6 | 0.00 | 0.00 | 0.00 | 71 | 1016.3 |
| 20260902135622 | 30 | 92 | 0.0 | 3.2 | 0.00 | 0.00 | 0.00 | 71 | 1016.2 |
| 20260902135123 | 30 | 92 | 0.0 | 3.2 | 0.00 | 0.00 | 0.00 | 74 | 1016.1 |
| 20260902134622 | 30 | 92 | 0.0 | 3.2 | 0.00 | 0.00 | 0.00 | 73 | 1016.1 |
| 20260902134123 | 30 | 92 | 0.0 | 4.8 | 0.00 | 0.00 | 0.00 | 73 | 1016.0 |